Find NATO 3B

NORAD ID: 9785 Int'l Des: 1977-005 Owner: NICS Country: I-NATO operational
HEOCIRCULAR

Live Position

Loading 3D Globe...

About NATO 3B

Description loading...

Upcoming Passes

Passes for default location (London). Set your location on the main map for personalized predictions.

Altitude History

Loading altitude history...

Two-Line Element Set

1 09785U 77005A 26111.55608426 -.00000093 00000-0 00000-0 0 9998
2 09785 8.3227 311.3201 0042909 49.3018 318.2964 0.95269184116132
Epoch: Apr 21, 2026 • Age: 13 hours

Current Status

Altitude 37399.1 km
Velocity 3.01 km/s
Sub-Earth Point -1.80°S, 100.41°W
Type other

Most Searched